| time (UTC) | temp C | wind direction | speed KPH | gust KPH | rain 1hr cm | rain 24hr cm | rain mn cm | humidity % | barometer mb |
| 20260505234604 | 2 | 349 | 0.0 | 0.0 | 0.00 | 0.00 | 0.00 | 83 | 1010.9 |
| 20260505233034 | 2 | 349 | 0.0 | 0.0 | 0.00 | 0.00 | 0.00 | 84 | 1010.8 |
| 20260505231536 | 2 | 349 | 0.0 | 0.0 | 0.00 | 0.00 | 0.00 | 80 | 1010.8 |
| 20260505230029 | 3 | 349 | 0.0 | 0.0 | 0.00 | 0.00 | 0.00 | 79 | 1010.8 |
| 20260505224530 | 3 | 349 | 0.0 | 0.0 | 0.00 | 0.00 | 0.00 | 77 | 1010.9 |
| 20260505223023 | 4 | 349 | 0.0 | 0.0 | 0.00 | 0.00 | 0.00 | 76 | 1011.0 |
| 20260505221522 | 4 | 349 | 0.0 | 0.0 | 0.00 | 0.00 | 0.00 | 75 | 1011.0 |
| 20260505220020 | 5 | 349 | 0.0 | 0.0 | 0.00 | 0.00 | 0.00 | 73 | 1011.0 |
| 20260505214521 | 5 | 349 | 0.0 | 1.6 | 0.00 | 0.00 | 0.00 | 71 | 1011.0 |
| 20260505213016 | 5 | 350 | 0.0 | 4.8 | 0.00 | 0.00 | 0.00 | 70 | 1011.0 |
| 20260505211515 | 5 | 345 | 1.6 | 3.2 | 0.00 | 0.00 | 0.00 | 70 | 1011.0 |
| 20260505210014 | 5 | 345 | 0.0 | 0.0 | 0.00 | 0.00 | 0.00 | 70 | 1011.1 |
| 20260505204522 | 6 | 345 | 0.0 | 3.2 | 0.00 | 0.00 | 0.00 | 69 | 1011.2 |
| 20260505203011 | 6 | 342 | 0.0 | 3.2 | 0.00 | 0.00 | 0.00 | 68 | 1011.2 |
| 20260505201510 | 5 | 340 | 0.0 | 0.0 | 0.00 | 0.00 | 0.00 | 70 | 1011.3 |
| 20260505200015 | 6 | 340 | 0.0 | 0.0 | 0.00 | 0.00 | 0.00 | 69 | 1011.1 |
| 20260505194505 | 7 | 340 | 0.0 | 1.6 | 0.00 | 0.00 | 0.00 | 66 | 1011.1 |
| 20260505193003 | 8 | 340 | 0.0 | 0.0 | 0.00 | 0.00 | 0.00 | 61 | 1011.1 |
| 20260505191504 | 8 | 340 | 0.0 | 1.6 | 0.00 | 0.00 | 0.00 | 54 | 1011.0 |
| 20260505190002 | 10 | 340 | 0.0 | 3.2 | 0.00 | 0.00 | 0.00 | 50 | 1010.9 |
| 20260505184502 | 10 | 339 | 1.6 | 4.8 | 0.00 | 0.00 | 0.00 | 48 | 1011.0 |
| 20260505183006 | 11 | 344 | 1.6 | 4.8 | 0.00 | 0.00 | 0.00 | 45 | 1011.0 |
| 20260505181501 | 11 | 349 | 0.0 | 8.0 | 0.00 | 0.00 | 0.00 | 43 | 1011.0 |
| 20260505180001 | 11 | 330 | 1.6 | 8.0 | 0.00 | 0.00 | 0.00 | 42 | 1011.0 |
| 20260505173100 | 12 | 360 | 4.8 | 12.9 | 0.00 | 0.00 | 0.00 | 39 | 1011.0 |
| 20260505171559 | 12 | 46 | 4.8 | 14.5 | 0.00 | 0.00 | 0.00 | 38 | 1011.1 |
| 20260505170101 | 12 | 11 | 4.8 | 16.1 | 0.00 | 0.00 | 0.00 | 42 | 1011.0 |
| 20260505164630 | 12 | 336 | 4.8 | 20.9 | 0.00 | 0.00 | 0.00 | 41 | 1011.1 |
| 20260505163057 | 13 | 31 | 6.4 | 19.3 | 0.00 | 0.00 | 0.00 | 36 | 1011.0 |
| 20260505161559 | 13 | 350 | 6.4 | 22.5 | 0.00 | 0.00 | 0.00 | 37 | 1011.0 |
| 20260505160107 | 13 | 348 | 4.8 | 17.7 | 0.00 | 0.00 | 0.00 | 39 | 1010.8 |
| 20260505153053 | 14 | 23 | 6.4 | 19.3 | 0.00 | 0.00 | 0.00 | 41 | 1010.7 |
| 20260505151552 | 14 | 331 | 9.7 | 22.5 | 0.00 | 0.00 | 0.00 | 38 | 1010.9 |
| 20260505124543 | 15 | 344 | 4.8 | 17.7 | 0.00 | 0.00 | 0.00 | 45 | 1011.0 |
| 20260505123035 | 14 | 318 | 9.7 | 17.7 | 0.00 | 0.00 | 0.00 | 43 | 1010.9 |
| 20260505121536 | 14 | 319 | 8.0 | 22.5 | 0.00 | 0.00 | 0.00 | 45 | 1011.0 |
| 20260505120038 | 14 | 51 | 6.4 | 16.1 | 0.00 | 0.00 | 0.00 | 45 | 1011.0 |
| 20260505114530 | 14 | 19 | 6.4 | 14.5 | 0.00 | 0.00 | 0.00 | 47 | 1011.0 |
| 20260505113032 | 14 | 325 | 4.8 | 14.5 | 0.00 | 0.00 | 0.00 | 51 | 1011.1 |
| 20260505111527 | 13 | 47 | 8.0 | 17.7 | 0.00 | 0.00 | 0.00 | 57 | 1011.1 |
| 20260505101526 | 13 | 324 | 3.2 | 20.9 | 0.00 | 0.00 | 0.00 | 58 | 1011.3 |
| 20260505100022 | 13 | 22 | 3.2 | 14.5 | 0.00 | 0.00 | 0.00 | 60 | 1011.4 |
| 20260505094525 | 13 | 317 | 9.7 | 17.7 | 0.00 | 0.03 | 0.00 | 57 | 1011.5 |
| 20260505093015 | 12 | 26 | 4.8 | 17.7 | 0.00 | 0.03 | 0.00 | 63 | 1011.5 |
| 20260505091512 | 11 | 320 | 8.0 | 16.1 | 0.00 | 0.03 | 0.00 | 64 | 1011.6 |
| 20260505090011 | 11 | 63 | 8.0 | 20.9 | 0.00 | 0.03 | 0.00 | 63 | 1011.6 |
| 20260505084509 | 11 | 5 | 6.4 | 16.1 | 0.00 | 0.03 | 0.00 | 63 | 1011.6 |
| 20260505083008 | 12 | 54 | 3.2 | 8.0 | 0.00 | 0.03 | 0.00 | 62 | 1011.5 |
| 20260505081506 | 11 | 304 | 4.8 | 16.1 | 0.00 | 0.03 | 0.00 | 65 | 1011.6 |
| 20260505080005 | 11 | 22 | 4.8 | 14.5 | 0.00 | 0.03 | 0.00 | 63 | 1011.5 |
| 20260505074503 | 12 | 355 | 6.4 | 16.1 | 0.00 | 0.03 | 0.00 | 62 | 1011.6 |
| 20260505073001 | 11 | 313 | 3.2 | 8.0 | 0.00 | 0.03 | 0.00 | 67 | 1011.5 |
| 20260505071600 | 10 | 346 | 4.8 | 12.9 | 0.00 | 0.03 | 0.00 | 70 | 1011.5 |
| 20260505070100 | 10 | 32 | 4.8 | 14.5 | 0.00 | 0.03 | 0.00 | 69 | 1011.5 |
| 20260505064600 | 11 | 335 | 9.7 | 16.1 | 0.00 | 0.03 | 0.00 | 67 | 1011.4 |
| 20260505063113 | 11 | 333 | 6.4 | 17.7 | 0.00 | 0.03 | 0.00 | 69 | 1011.4 |
| 20260505061555 | 11 | 324 | 3.2 | 19.3 | 0.00 | 0.03 | 0.00 | 73 | 1011.3 |
| 20260505060053 | 10 | 325 | 8.0 | 19.3 | 0.00 | 0.03 | 0.00 | 72 | 1011.4 |
| 20260505054554 | 10 | 355 | 6.4 | 14.5 | 0.00 | 0.03 | 0.00 | 72 | 1011.2 |
| 20260505053054 | 10 | 327 | 1.6 | 9.7 | 0.00 | 0.03 | 0.00 | 74 | 1011.3 |
| 20260505051540 | 10 | 325 | 3.2 | 14.5 | 0.00 | 0.03 | 0.00 | 76 | 1011.3 |
| 20260505041537 | 7 | 302 | 0.0 | 1.6 | 0.00 | 0.03 | 0.00 | 84 | 1011.2 |
| 20260505040033 | 7 | 301 | 0.0 | 3.2 | 0.00 | 0.03 | 0.00 | 84 | 1011.2 |
| 20260505034524 | 7 | 301 | 0.0 | 3.2 | 0.00 | 0.03 | 0.00 | 84 | 1011.3 |
| 20260505033020 | 7 | 311 | 0.0 | 0.0 | 0.00 | 0.03 | 0.00 | 84 | 1011.4 |
| 20260505031533 | 6 | 313 | 0.0 | 0.0 | 0.00 | 0.03 | 0.00 | 84 | 1011.4 |
| 20260505030017 | 6 | 313 | 0.0 | 1.6 | 0.00 | 0.03 | 0.00 | 84 | 1011.3 |
| 20260505024516 | 7 | 313 | 0.0 | 3.2 | 0.00 | 0.03 | 0.00 | 83 | 1011.4 |
| 20260505023015 | 7 | 315 | 0.0 | 4.8 | 0.00 | 0.03 | 0.00 | 83 | 1011.3 |
| 20260505021513 | 7 | 278 | 0.0 | 4.8 | 0.00 | 0.03 | 0.00 | 83 | 1011.5 |
| 20260505020013 | 7 | 336 | 0.0 | 6.4 | 0.00 | 0.03 | 0.00 | 82 | 1011.4 |
| 20260505014512 | 7 | 332 | 1.6 | 12.9 | 0.00 | 0.03 | 0.00 | 82 | 1011.4 |
| 20260505013011 | 7 | 330 | 1.6 | 8.0 | 0.00 | 0.03 | 0.00 | 82 | 1011.4 |
| 20260505011509 | 7 | 322 | 0.0 | 8.0 | 0.00 | 0.03 | 0.00 | 83 | 1011.5 |
| 20260505010007 | 7 | 341 | 1.6 | 8.0 | 0.00 | 0.03 | 0.00 | 84 | 1011.5 |
| 20260505004506 | 7 | 294 | 0.0 | 8.0 | 0.00 | 0.03 | 0.00 | 84 | 1011.7 |
| 20260505003006 | 7 | 322 | 0.0 | 6.4 | 0.00 | 0.03 | 0.00 | 84 | 1011.6 |
| 20260505001504 | 6 | 313 | 0.0 | 4.8 | 0.00 | 0.03 | 0.00 | 85 | 1011.6 |
| 20260505000001 | 7 | 340 | 0.0 | 0.0 | 0.00 | 0.03 | 0.00 | 84 | 1011.7 |